Погода в Малиновке

Погода в Малиновке : погода сейчас, прогноз погоды и архив. Всё, что Вы хотите узнать о погоде в Малиновке!

Поиск расширенной информации на нашем сайте:

Другие новости

Новости СМИ2

Главная страница сайта

Новости сайта

03.07.2017

Напоминаем, что на нашем специализированном сайте Метеоцентр.Азия вы можете получить высокодетализированные автоматические прогнозы погоды по пунктам России, СНГ и мира в авиационном формате (включающие направление и скорость ветра, видимость, явления погоды, количество и форму облачности, нижнюю и верхнюю границу облачности).


Погода в Малиновке - сегодня

Время (UTC), дата Ветер
(°,м/с) 
Видим.   Явления Облачность Т
(°С)
Тd
(°С)
f(%) Тe
(°С)
Pmin
(гПа)
dP
(гПа)
Po
(мм)
O2
(г/м3)
Тmin Tmax R s Состояние
почвы
00 23.07.17 240 (ЮЗ) 20000 м    8/0 средняя, верхняя 
[Ac trans|Ci fib]
+20.3 +16.3 78 +32  1001.6  0.1  741  274  +11    16    влажная 
03 23.07.17 290 (З) 20000 м    6/1 600 м кучево-дожд., средняя, верхняя 
[Cb cap|Ac trans|Ci fib]
+22.9 +16.3 66 +34  1000.6  -0.8  741  272           
06 23.07.17 290 (З) 20000 м    6/3 600 м кучево-дожд., средняя, верхняя 
[Cb cap|Ac trans|Ci fib]
+24.5 +14.8 55 +33  999.5  -1  740  271           
09 23.07.17 290 (З) 20000 м    8/4 600 м кучево-дожд., средняя, верхняя 
[Cb cap|Ac trans|Ci fib]
+22.4 +15.6 65 +33  999.2  -0.4  740  272           
12 23.07.17 290 (З) 20000 м  {ливн. осадки}  8/4 600 м кучево-дожд., средняя, верхняя 
[Cb cap|Ac trans|Ci fib]
+16.5 +15.3 93 +27  1000.8  1.2  740  278    +25.1  0.7     
15 23.07.17 310 (СЗ) 50000 м    4/0 средняя, верхняя 
[Ac trans|Ci fib]
+16.3 +14.5 89 +25  1000.5  -0.2  740  278           
18 23.07.17 300 (СЗ) 50000 м    4/0 средняя, верхняя 
[Ac trans|Ci fib]
+16 +14.4 90 +25  999.9  -0.7  740  279           
21 23.07.17 310 (СЗ) 20000 м    10/10 1000 м 
[Sc]
+15.7 +13.6 87 +23  1000.4  0.5  740  279           
00 24.07.17 300 (СЗ) 20000 м  {ливн. осадки}  10/10 600 м кучево-дожд. 
[Cb cap]
+15.9 +13.5 86 +22  1000.9  0.5  741  279  +15    0.7    мокрая 
03 24.07.17 290 (З) 20000 м    4/4 600 м кучево-дожд. 
[Cb cap]
+18.9 +12.9 68 +26  1000.6  -0.2  740  276           
06 24.07.17 290 (З) 5{10}  20000 м    4/3 600 м кучево-дожд., верхняя 
[Cb cap|Ci ing]
+21.2 +10.4 50 +23  999.5  -1  740  275           
09 24.07.17 320 (СЗ) 4{11}  20000 м    6/5 600 м кучево-дожд., верхняя 
[Cb cap|Ci ing]
+18.7 +10.5 59 +21  1000.3  0.7  740  277           
12 24.07.17 270 (З) 10 км  слаб. ливневой дождь  9/6 600 м кучево-дожд., средняя 
[Cb cap|Ac As]
+14.1 +12 87 +19  1001.2  0.7  741  281    +21.5  0.0     
15 24.07.17 300 (СЗ) 50000 м    8/0 верхняя 
[Ci fib]
+14 +12.2 89 +19  1001.1  0.1  741  281           
18 24.07.17 310 (СЗ) 50000 м    10/0 средняя, верхняя 
[Ac trans|Ci fib]
+14.1 +12.4 89 +20  1001.3  0.2  741  281           
21 24.07.17 290 (З) 20000 м    8/4 600 м кучево-дожд., средняя 
[Cb cap|Ac trans]
+14.4 +12.3 87 +20  1002.1  0.8  741  281           
00 25.07.17 320 (СЗ) 20000 м    4/3 1000 м верхняя 
[Cu hum|Ci fib]
+18 +12.3 69 +24  1002.8  0.8  742  278  +13.8        влажная 
03 25.07.17 320 (СЗ) 20000 м    4/4 1000 м 
[Cu med, cong]
+22.2 +13.2 57 +28  1002.6  742  274           
06 25.07.17 310 (СЗ) 4{10}  20000 м    6/6 600 м кучево-дожд. 
[Cb cap]
+22.9 +11.1 47 +26  1002.7  0.1  742  274           
09 25.07.17 320 (СЗ) 4{10}  20000 м    6/6 600 м кучево-дожд. 
[Cb cap]
+22.3 +11 49 +25  1003.6  0.9  743  275           
15 25.07.17 340 (С) 50000 м    ясно 
+13 +11.7 92 +18  1006.5  0.9  745  284           
18 25.07.17 290 (З) 50000 м    ясно 
+10.4 +9.3 93 +11  1007  0.3  745  287           
21 25.07.17 280 (З) 20000 м    1/0 верхняя 
[Ci fib]
+10.6 +9.7 94 +13  1008.2  1.1  746  287           
00 26.07.17 190 (Ю) 20000 м    8/0 верхняя 
[Ci fib]
+18.2 +12.5 69 +25  1008.8  746  280  +8.8        влажная 
03 26.07.17 100 (В) 20000 м    3/0 верхняя 
[Ci fib]
+22.8 +14.3 59 +30  1007.6  -1  746  274           
Время (UTC), дата Ветер
(°,м/с) 
Видим.   Явления Облачность Т
(°С)
Тd
(°С)
f(%) Тe
(°С)
Pmin
(гПа)
dP
(гПа)
Po
(мм)
O2
(г/м3)
Тmin Tmax R s Состояние
почвы

Для получения пояснительной информации подведите курсор к названию столбца.

ПОГОДА в Малиновке - архив

Всё, что Вы хотите узнать о погоде в Малиновке - удобно и подробно!

Выберите нужную дату (начиная с 1 января 2015* года) и нажмите кнопку "Найти".
Будут отображены архивные сводки погоды по пункту Малиновка, начиная с указанной даты.


Отображать данные в формате CSV (для использования в таблицах Excel)


Внимание! Наш архив погоды предназначен исключительно для личного некоммерческого использования в познавательных целях. Если Вам необходимы официальные справки о состоянии погоды (для производственных, юридических, коммерческих и т.п. целей), обращайтесь в органы Росгидромета.

*Примечание: данная дата относится к архиву по метеостанциям СССР (Россия, СНГ, Балтия).
Архив по метеостанциям Зарубежной Европы и Азии (кроме Китая) хранится 10 дней, по другим регионам земного шара (Китай, Африка, Америка, Австралия, Океания) - 1 день.

Малиновка - район местоположения метеостанции


Название, широта, долгота, высота метеостанции:
Малиновка 49.8°ш. 129.9°д. 116 м над ур. моря [Российская Федерация]

Дополнительная информация

В oтличие oт бoльшинства пoгoдных сайтoв мы публикуем пoдрoбную метеoинфoрмацию в детальнoм прoфессиoнальнoм фoрмате.

Характеристики температуры и влажнoсти вoздуха измеряются на высoте 2 м в тени вдали oт зданий и деревьев.
Скoрoсть ветра измеряется на высoте 10 м (на урoвне рoста челoвека скoрoсть ветра ниже в 1.5-2 раза). Если метеoстанция нахoдится в гoрoде или в лесу, тo скoрoсть ветра занижена на 2-4 м/с пo сравнению с oткрытым местoм. Скoрoсть ветра над акватoриями крупных рек и oзёр, а также на вершинах хoлмoв на 2-5 м/с выше, чем в oбычных услoвиях.
Атмoсфернoе давление в разных тoчках местнoсти мoжет значительнo oтличаться oт давления на метеoстанции, в зависимoсти oт услoвий рельефа (при пoдъёме на 10 м давление пoнижается примернo на 1 мм рт.ст.).